Terminal Aerodrome Forecast
Issued by NWS Quad Cities IA IL

Home | Current Version | Previous Version | Text Only | Print | Product List | Glossary On
Versions: 1 2 3 4 5 6 7 8 9 10 11 12 13 14 15 16 17 18 19 20
029
FTUS43 KDVN 300520
TAFDBQ
TAF
KDBQ 300520Z 3006/0106 22006KT P6SM BKN030
     FM301000 23007KT P6SM OVC012
     FM301500 24010KT 6SM BR BKN008 OVC012
     FM302000 24012G18KT 5SM -RASN BR OVC012
     FM010200 26012KT 5SM BR VCSH OVC010=

USA.gov is the U.S. government's official web portal to all federal, state and local government web resources and services.